Estació municipal de Vilalleons (Osona, E.N.Guilleries-Savassona)

Consulta les dades en temps real de l'estació municipal de Vilalleons





Hora UTC 02:55
Temperatura 18.3 ºC
Humitat 84.0 %
Pressió 1020.0 hPa
Pluja 0.0 mm
Velocitat vent 0.0 km/h
Direcció vent ESE

Webcam

Dades diàries 2026-09-05



Hora UTC (hivern +1h; estiu +2h)
Temperatura (ºC) Humitat (%) Pressió (hPa) Velocitat vent (km/h) Precipitació (mm)
Hora UTC Aire Humitat Pressió Vel. Dir. Vel. Max Dir. Intent. màx 5 min.
00:05 20.0 83.0 1020.0 1.6 ESE 1.6 0.0
00:10 20.0 83.0 1020.2 1.6 ESE 3.2 0.0
00:15 19.9 83.0 1020.1 1.6 ESE 3.2 0.0
00:20 19.9 83.0 1020.2 0.0 ESE 3.2 0.0
00:25 19.8 83.0 1020.2 1.6 ESE 4.8 0.0
00:30 19.8 84.0 1020.1 1.6 ESE 4.8 0.0
00:35 19.8 84.0 1020.2 1.6 ESE 4.8 0.0
00:40 19.8 84.0 1020.1 0.0 ESE 4.8 0.0
00:45 19.7 84.0 1020.0 0.0 ESE 3.2 0.0
00:50 19.7 84.0 1020.0 0.0 ESE 3.2 0.0
00:55 19.5 83.0 1020.0 0.0 ESE 0.0 0.0
01:00 19.3 83.0 1019.9 0.0 ESE 0.0 0.0
01:05 19.2 83.0 1020.1 0.0 ESE 0.0 0.0
01:10 19.1 82.0 1020.1 0.0 ESE 0.0 0.0
01:15 19.1 82.0 1020.1 0.0 ESE 0.0 0.0
01:20 18.9 82.0 1020.0 3.2 ESE 4.8 0.0
01:25 18.9 83.0 1020.0 3.2 ESE 4.8 0.0
01:30 18.8 83.0 1020.1 1.6 ESE 4.8 0.0
01:35 18.8 83.0 1020.1 0.0 ESE 4.8 0.0
01:40 18.8 83.0 1020.1 3.2 ESE 3.2 0.0
01:45 18.7 83.0 1020.0 0.0 ESE 3.2 0.0
01:50 18.7 83.0 1020.1 3.2 ESE 4.8 0.0
01:55 18.8 83.0 1020.1 1.6 ESE 4.8 0.0
02:00 18.7 83.0 1020.2 0.0 ESE 3.2 0.0
02:05 18.7 83.0 1020.1 3.2 ESE 3.2 0.0
02:10 18.7 83.0 1020.1 3.2 ESE 4.8 0.0
02:15 18.7 83.0 1020.1 1.6 ESE 4.8 0.0
02:20 18.6 83.0 1020.0 1.6 ESE 4.8 0.0
02:25 18.6 83.0 1019.9 0.0 ESE 4.8 0.0
02:30 18.6 83.0 1020.0 0.0 ESE 1.6 0.0
02:35 18.5 84.0 1020.0 0.0 ESE 3.2 0.0
02:40 18.5 84.0 1020.0 0.0 ESE 3.2 0.0
02:45 18.4 84.0 1019.9 0.0 ESE 0.0 0.0
02:50 18.3 84.0 1020.0 0.0 ESE 0.0 0.0
02:55 18.3 84.0 1020.0 0.0 ESE 0.0 0.0
Màxima 20.0 84.0 1020.2 3.2 ESE 4.8 0.0
Mínima 18.3 82.0 1019.9
Total 0.0